Weather History for Evanston, WY

Change the Weather History Date:

Saturday, December 8, 2012

  Actual Average Record
Temperature  
Mean Temperature 21 °F 21 °F  
Max Temperature 31 °F 29 °F 49 °F (2014)
Min Temperature 11 °F 14 °F -12 °F (2005)
Degree Days  
Heating Degree Days 44 44  
Month to date heating degree days 259 344  
Since 1 July heating degree days 1904 2453  
Cooling Degree Days 0 0  
Month to date cooling degree days 0 0  
Year to date cooling degree days 346 162  
Moisture  
Dew Point 14 °F    
Average Humidity 71    
Maximum Humidity 88    
Minimum Humidity 53    
Precipitation  
Precipitation 0.03 in 0.02 in 0.05 in (2003)
Month to date precipitation 0.08 0.18  
Year to date precipitation 5.63 11.73  
Sea Level Pressure  
Sea Level Pressure 29.92 in    
Wind  
Wind Speed 16 mph (WNW)    
Max Wind Speed 35 mph    
Max Gust Speed 44 mph    
Visibility 3 miles    
Events Fog , Snow    
T = Trace of Precipitation, MM = Missing Value Source: NWS Daily Summary

Daily Weather History Graph

Daily Weather History Graph

Search for Another Location

Airport:

Trip Planner

Search our weather history database for the weather conditions in past years. The results will help you decide how hot, cold, wet, or windy it might be!

Date:

Astronomy

Dec. 08, 2012 Rise Set
Actual Time 7:37 AM MST 4:54 PM MST
Civil Twilight 7:06 AM MST 5:25 PM MST
Nautical Twilight 6:32 AM MST 6:00 PM MST
Astronomical Twilight 5:58 AM MST 6:34 PM MST
Moon 2:03 AM MST (12/8) 1:29 PM MST (12/8)
Length of Visible Light 10h 19m
Length of Day
9h 17m
Waning Crescent, 27% of the Moon is Illuminated
Dec 8
Waning Crescent
Dec 13
New
Dec 19
First Quarter
Dec 28
Full
Jan 4
Last Quarter

Hourly Weather History & Observations

Time (MST) Temp. Windchill Dew Point Humidity Pressure Visibility Wind Dir Wind Speed Gust Speed Precip Events Conditions
12:53 AM 28.9 °F 19.8 °F 17.1 °F 61% 29.87 in 10.0 mi SSW 10.4 mph - N/A   Overcast
1:53 AM 28.0 °F 17.5 °F 17.1 °F 63% 29.83 in 10.0 mi SSW 12.7 mph - N/A   Scattered Clouds
2:53 AM 30.0 °F 16.0 °F 18.0 °F 61% 29.80 in 10.0 mi WSW 25.3 mph 39.1 mph N/A   Scattered Clouds
4:53 AM 30.9 °F 16.9 °F 16.0 °F 54% 29.79 in 10.0 mi West 26.5 mph 38.0 mph N/A   Overcast
5:53 AM 30.0 °F 15.7 °F 17.1 °F 59% 29.81 in 10.0 mi WSW 26.5 mph 34.5 mph N/A   Overcast
6:53 AM 28.0 °F 13.9 °F 19.0 °F 69% 29.83 in 10.0 mi West 23.0 mph 33.4 mph N/A   Overcast
7:53 AM 27.0 °F 12.8 °F 17.1 °F 66% 29.84 in 10.0 mi West 21.9 mph 36.8 mph N/A   Overcast
8:53 AM 24.1 °F 7.7 °F 17.1 °F 75% 29.89 in 3.0 mi West 26.5 mph 33.4 mph 0.00 in Snow Light Snow
9:05 AM 24.8 °F 9.0 °F 17.6 °F 74% 29.83 in 2.5 mi West 25.3 mph 34.5 mph 0.00 in Snow Light Snow
9:13 AM 24.8 °F 9.6 °F 17.6 °F 74% 29.83 in 6.0 mi West 23.0 mph 32.2 mph 0.00 in Snow Light Snow
9:50 AM 23.0 °F 6.9 °F 17.6 °F 80% 29.84 in 1.8 mi WSW 24.2 mph 32.2 mph 0.00 in Snow Light Snow
9:53 AM 23.0 °F 6.6 °F 18.0 °F 81% 29.91 in 1.5 mi WSW 25.3 mph 33.4 mph 0.00 in Snow Light Snow
10:00 AM 23.0 °F 7.2 °F 17.6 °F 80% 29.84 in 0.8 mi WSW 23.0 mph 33.4 mph 0.00 in Snow Light Snow
10:21 AM 23.0 °F 7.2 °F 19.4 °F 86% 29.85 in 1.0 mi WSW 23.0 mph 31.1 mph 0.00 in Snow Light Snow
10:28 AM 23.0 °F 8.3 °F 19.4 °F 86% 29.85 in 2.0 mi WSW 19.6 mph 27.6 mph 0.00 in Snow Light Snow
10:43 AM 24.8 °F 10.7 °F 19.4 °F 80% 29.86 in 1.5 mi West 19.6 mph 27.6 mph 0.00 in Snow Light Snow
10:53 AM 24.1 °F 9.8 °F 19.0 °F 81% 29.92 in 1.0 mi West 19.6 mph 27.6 mph 0.00 in Snow Light Snow
11:10 AM 23.0 °F 8.3 °F 19.4 °F 86% 29.87 in 0.5 mi West 19.6 mph 29.9 mph 0.00 in Fog , Snow Snow
11:20 AM 23.0 °F 9.6 °F 17.6 °F 80% 29.88 in 1.8 mi WNW 16.1 mph 24.2 mph 0.00 in Snow Light Snow
11:23 AM 21.2 °F 7.8 °F 17.6 °F 86% 29.88 in 1.5 mi NW 15.0 mph 24.2 mph 0.00 in Snow Light Snow
11:37 AM 21.2 °F 5.2 °F 17.6 °F 86% 29.88 in 0.8 mi WNW 21.9 mph 27.6 mph 0.00 in Snow Light Snow
11:42 AM 21.2 °F 5.6 °F 15.8 °F 80% 29.88 in 1.8 mi WNW 20.7 mph 27.6 mph 0.00 in Snow Light Snow
11:45 AM 21.2 °F 6.4 °F 15.8 °F 80% 29.88 in 4.0 mi WNW 18.4 mph 27.6 mph 0.00 in Snow Light Snow
11:53 AM 21.9 °F 7.8 °F 14.0 °F 72% 29.93 in 6.0 mi WNW 17.3 mph 25.3 mph 0.00 in Snow Light Snow
12:40 PM 19.4 °F 5.0 °F 15.8 °F 86% 29.88 in 1.8 mi West 16.1 mph - 0.00 in Snow Light Snow
12:48 PM 19.4 °F 5.0 °F 15.8 °F 86% 29.88 in 1.2 mi West 16.1 mph - 0.00 in Snow Light Snow
12:53 PM 19.9 °F 7.9 °F 15.1 °F 81% 29.94 in 1.0 mi West 11.5 mph - 0.00 in Snow Light Snow
1:01 PM 19.4 °F 6.0 °F 15.8 °F 86% 29.88 in 0.8 mi West 13.8 mph - 0.00 in Snow Light Snow
1:53 PM 19.0 °F 4.0 °F 15.1 °F 85% 29.95 in 1.2 mi West 17.3 mph - 0.00 in Snow Light Snow
2:44 PM 19.4 °F 4.1 °F 15.8 °F 86% 29.89 in 0.8 mi West 18.4 mph - 0.00 in Snow Light Snow
2:53 PM 19.0 °F 3.6 °F 14.0 °F 81% 29.95 in 1.5 mi West 18.4 mph - 0.00 in Snow Light Snow
2:57 PM 19.4 °F 3.6 °F 14.0 °F 80% 29.89 in 3.0 mi West 19.6 mph - 0.00 in Snow Light Snow
3:19 PM 19.4 °F 5.0 °F 12.2 °F 74% 29.90 in 1.8 mi West 16.1 mph - 0.00 in Snow Light Snow
3:26 PM 19.4 °F 3.6 °F 12.2 °F 74% 29.90 in 0.8 mi West 19.6 mph 24.2 mph 0.00 in Snow Light Snow
3:51 PM 17.6 °F 1.7 °F 12.2 °F 79% 29.90 in 1.0 mi West 18.4 mph 24.2 mph 0.00 in Snow Light Snow
3:53 PM 18.0 °F 2.6 °F 12.9 °F 81% 29.96 in 1.0 mi West 17.3 mph 24.2 mph 0.00 in Snow Light Snow
4:12 PM 17.6 °F 2.2 °F 12.2 °F 79% 29.90 in 2.0 mi West 17.3 mph - 0.00 in Snow Light Snow
4:19 PM 17.6 °F 2.2 °F 14.0 °F 86% 29.91 in 3.0 mi WSW 17.3 mph - 0.00 in Snow Light Snow
4:28 PM 17.6 °F 3.2 °F 12.2 °F 79% 29.91 in 1.8 mi WSW 15.0 mph - 0.00 in Snow Light Snow
4:36 PM 17.6 °F 2.7 °F 12.2 °F 79% 29.91 in 1.2 mi West 16.1 mph - 0.00 in Snow Light Snow
4:53 PM 17.1 °F 2.5 °F 12.9 °F 84% 29.98 in 1.8 mi WSW 15.0 mph - 0.00 in Snow Light Snow
4:56 PM 17.6 °F 2.7 °F 12.2 °F 79% 29.91 in 3.0 mi WSW 16.1 mph - 0.00 in Snow Light Snow
5:07 PM 17.6 °F 3.2 °F 12.2 °F 79% 29.91 in 2.5 mi WSW 15.0 mph - 0.00 in Snow Light Snow
5:16 PM 17.6 °F 4.3 °F 12.2 °F 79% 29.91 in 4.0 mi WSW 12.7 mph - 0.00 in Snow Light Snow
5:32 PM 17.6 °F 5.0 °F 12.2 °F 79% 29.91 in 6.0 mi WSW 11.5 mph - 0.00 in Snow Light Snow
5:53 PM 17.1 °F 3.0 °F 14.0 °F 88% 29.99 in 3.0 mi WSW 13.8 mph - 0.00 in Snow Light Snow
5:57 PM 17.6 °F 5.7 °F 12.2 °F 79% 29.92 in 1.8 mi West 10.4 mph - 0.00 in Snow Light Snow
6:04 PM 17.6 °F 8.2 °F 14.0 °F 86% 29.92 in 1.0 mi NNW 6.9 mph - 0.00 in Snow Light Snow
6:32 PM 15.8 °F 5.1 °F 12.2 °F 86% 29.94 in 0.5 mi North 8.1 mph - 0.00 in Fog , Snow Snow
6:53 PM 15.1 °F 3.3 °F 12.0 °F 88% 30.04 in 0.8 mi NNE 9.2 mph - 0.01 in Snow Light Snow
7:04 PM 15.8 °F 2.7 °F 12.2 °F 86% 29.94 in 0.8 mi North 11.5 mph - 0.00 in Snow Light Snow
7:28 PM 14.0 °F 1.2 °F 10.4 °F 86% 29.94 in 1.0 mi North 10.4 mph - 0.00 in Snow Light Snow
7:39 PM 15.8 °F 7.2 °F 12.2 °F 86% 29.95 in 0.8 mi North 5.8 mph - 0.00 in Snow Light Snow
7:53 PM 15.1 °F 9.4 °F 12.0 °F 88% 30.06 in 0.8 mi NNE 3.5 mph - 0.00 in Snow Light Snow
8:24 PM 14.0 °F 6.5 °F 10.4 °F 86% 29.95 in 1.0 mi North 4.6 mph - 0.01 in Snow Light Snow
8:34 PM 14.0 °F 6.5 °F 10.4 °F 86% 29.95 in 0.8 mi North 4.6 mph - 0.01 in Snow Light Snow
8:53 PM 14.0 °F 3.9 °F 10.9 °F 88% 30.08 in 0.8 mi NNE 6.9 mph - 0.02 in Snow Light Snow
9:00 PM 14.0 °F 5.1 °F 10.4 °F 86% 29.95 in 0.8 mi North 5.8 mph - 0.00 in Snow Light Snow
9:25 PM 14.0 °F 2.0 °F 10.4 °F 86% 29.96 in 1.0 mi NNE 9.2 mph - 0.00 in Snow Light Snow
9:39 PM 14.0 °F 3.9 °F 10.4 °F 86% 29.96 in 1.5 mi North 6.9 mph - 0.00 in Snow Light Snow
9:44 PM 14.0 °F 6.5 °F 10.4 °F 86% 29.96 in 2.0 mi North 4.6 mph - 0.00 in Snow Light Snow
9:53 PM 14.0 °F 3.9 °F 10.0 °F 84% 30.09 in 5.0 mi NW 6.9 mph - 0.00 in Snow Light Snow
10:53 PM 12.9 °F 5.2 °F 9.0 °F 84% 30.10 in 10.0 mi North 4.6 mph - 0.00 in   Overcast
11:53 PM 12.0 °F 4.1 °F 9.0 °F 88% 30.13 in 10.0 mi WNW 4.6 mph - N/A   Mostly Cloudy